Location: Aultman
(40.9284°N, 81.4173°W)
Time: 08:51:27
(UTC+00:00)

Helios 1A Rocket - Pass Details

Date: 24 January 2021
Orbit: 562 x 586 km, 98.3° (Epoch: 02 March)

Event Time Altitude Azimuth Distance (km) Brightness Sun altitude
Rises 23:35:41 0° 140° (SE) 2,799 6.2 -11.9°
Reaches altitude 10° 23:38:02 10° 129° (SE) 1,905 5.2 -12.3°
Maximum altitude 23:41:35 29° 69° (ENE) 1,096 3.8 -13.0°
Drops below altitude 10° 23:45:11 10° 9° (N) 1,918 5.4 -13.6°
Sets 23:47:33 0° 359° (N) 2,822 6.3 -14.1°
